Weather History for KCKB - January, 2013

Change the Weather History Date:

Friday, January 4, 2013

  Actual Average Record
Temperature  
Mean Temperature 29 °F -  
Max Temperature 30 °F 40 °F 71 °F (1997)
Min Temperature 27 °F 23 °F -1 °F (1928)
Degree Days  
Heating Degree Days 36    
Moisture  
Dew Point 20 °F    
Average Humidity 68    
Maximum Humidity 75    
Minimum Humidity 59    
Precipitation  
Precipitation 0.00 in - - ()
Sea Level Pressure  
Sea Level Pressure 30.27 in    
Wind  
Wind Speed 11 mph (WSW)    
Max Wind Speed 17 mph    
Max Gust Speed 23 mph    
Visibility 10 miles    
Events Snow    
Averages and records for this station are not official NWS values.
T = Trace of Precipitation, MM = Missing Value Source: NWS Daily Summary

Daily Weather History Graph

Daily Weather History Graph

Search for Another Location

Airport or City:

Trip Planner

Search our weather history database for the weather conditions in past years. The results will help you decide how hot, cold, wet, or windy it might be!

Date:

Astronomy

Jan. 04, 2013 Rise Set
Actual Time 7:40 AM EST 5:11 PM EST
Civil Twilight 7:11 AM EST 5:41 PM EST
Nautical Twilight 6:37 AM EST 6:14 PM EST
Astronomical Twilight 6:05 AM EST 6:47 PM EST
Moon No Moon Rise 11:25 AM EST
Length of Visible Light 10h 30m
Length of Day
9h 30m
Waning Gibbous, 55% of the Moon is Illuminated
Jan 4
Waning Gibbous
Jan 4
Last Quarter
Jan 11
New
Jan 18
First Quarter
Jan 26
Full

Hourly Weather History & Observations

Time (EST) Temp. Windchill Dew Point Humidity Pressure Visibility Wind Dir Wind Speed Gust Speed Precip Events Conditions
12:53 AM 30.0 °F 21.1 °F 17.1 °F 59% 30.25 in 10.0 mi WNW 10.4 mph - N/A   Overcast
1:53 AM 28.9 °F 18.6 °F 19.0 °F 67% 30.25 in 8.0 mi West 12.7 mph 20.7 mph 0.00 in Snow Light Snow
3:53 AM 30.0 °F 21.7 °F 18.0 °F 61% 30.26 in 10.0 mi WSW 9.2 mph - N/A   Overcast
4:51 AM 28.4 °F 20.4 °F 19.4 °F 69% 30.24 in 10.0 mi West 8.1 mph - N/A   Overcast
4:53 AM 28.9 °F 20.4 °F 19.0 °F 67% 30.26 in 10.0 mi WSW 9.2 mph - N/A   Overcast
5:39 AM 28.4 °F 18.5 °F 19.4 °F 69% 30.24 in 10.0 mi West 11.5 mph - N/A   Overcast
5:53 AM 28.9 °F 19.2 °F 19.0 °F 67% 30.26 in 10.0 mi WSW 11.5 mph - N/A   Overcast
6:53 AM 28.9 °F 22.8 °F 19.9 °F 69% 30.27 in 10.0 mi WSW 5.8 mph - N/A   Overcast
7:53 AM 28.9 °F 21.9 °F 19.9 °F 69% 30.27 in 10.0 mi West 6.9 mph - N/A   Overcast
8:53 AM 28.9 °F 18.2 °F 19.0 °F 67% 30.28 in 10.0 mi West 13.8 mph 19.6 mph N/A   Overcast
9:53 AM 30.0 °F 20.0 °F 19.9 °F 66% 30.30 in 10.0 mi SW 12.7 mph - N/A   Overcast
10:53 AM 30.0 °F 20.0 °F 21.0 °F 69% 30.30 in 10.0 mi WSW 12.7 mph 18.4 mph N/A   Overcast
11:53 AM 30.0 °F 20.5 °F 21.0 °F 69% 30.28 in 10.0 mi WSW 11.5 mph - N/A   Overcast
12:53 PM 30.9 °F 20.7 °F 19.9 °F 64% 30.26 in 10.0 mi West 13.8 mph 23.0 mph N/A   Overcast
1:53 PM 30.9 °F 21.2 °F 21.0 °F 67% 30.25 in 10.0 mi WSW 12.7 mph 18.4 mph N/A   Overcast
2:53 PM 30.9 °F 20.7 °F 21.0 °F 67% 30.25 in 10.0 mi WSW 13.8 mph - N/A   Overcast
3:27 PM 30.2 °F 21.3 °F 21.2 °F 69% 30.22 in 10.0 mi WSW 10.4 mph 18.4 mph N/A   Mostly Cloudy
3:53 PM 30.9 °F 20.7 °F 19.9 °F 64% 30.25 in 10.0 mi SW 13.8 mph - N/A   Mostly Cloudy
4:53 PM 30.9 °F 19.4 °F 19.9 °F 64% 30.26 in 10.0 mi SW 17.3 mph - N/A   Overcast
5:53 PM 30.0 °F 21.7 °F 19.9 °F 66% 30.26 in 10.0 mi SW 9.2 mph - N/A   Partly Cloudy
6:53 PM 28.9 °F 20.4 °F 19.9 °F 69% 30.28 in 10.0 mi SW 9.2 mph - N/A   Clear
7:53 PM 28.0 °F 19.3 °F 19.9 °F 72% 30.30 in 10.0 mi SSW 9.2 mph - N/A   Clear
8:53 PM 28.0 °F 19.3 °F 19.9 °F 72% 30.30 in 10.0 mi SSW 9.2 mph - N/A   Clear
9:53 PM 28.0 °F 19.3 °F 19.9 °F 72% 30.31 in 10.0 mi SSW 9.2 mph - N/A   Clear
10:53 PM 28.9 °F 21.1 °F 19.9 °F 69% 30.32 in 10.0 mi WSW 8.1 mph - N/A   Clear
11:53 PM 27.0 °F 19.5 °F 19.9 °F 75% 30.32 in 10.0 mi SW 6.9 mph - N/A   Clear